SL-8 DEB, 1549

Orbit data source: Space-Track

SL-8 DEB, 1549 is space debris in LEO originally from a launch on Mon, 15 Mar 1965 UTC launched from the Tyuratam Missile And Space Complex (TTMTR). Debris objects in space refer to the collection of defunct objects orbiting the Earth. Examples of debris include non-operational satellites, rocket bodies, and fragments generated from explosions, collisions, or faulty payload assembly.

Loading next visibility...
SL-8 DEB details
Identifier
1549, 1965-020CV
Orbit
LEO
Last TLE update18 hours ago
Origin
Flag of CISRVSN (CIS)
ManufacturerUnknown
MissionSpacecraft
Bus & MotorUnknown
MassUnknown
Launch date (UTC)
1965-03-15 (60 years ago)
Launch vehicleUnknown
Launch site
Tyuratam Missile And Space Complex (TTMTR)
Object type
Payload
Rocket body
Debris
Shape & HBRUnknown
Radar Cross SectionMedium (>0.1 m² and <1 m²)

Expand to show TLE details & history

TLE from 18 hours ago
0 SL-8 DEB
1 01549U 65020CV  24355.76552766  .00000191  00000-0  38857-3 0  9990
2 01549  56.1647   6.2279 0847407  72.2940 296.8589 12.63998562746218
Epoch: 2024-12-20T18:22Z
Definitive object data (Epoch: 2024-12-20T18:22:21.589Z)
Latitude
Longitude0.81161°
Altitude1,156.491 km
Speed7.392 km/s
True Right ascension00h 24m 54s
True Declination0° 00' 00"
Sunlit
Object was in daylight at TLE epoch
Visualization TLE readout
Latitude-32.77712°
Longitude-155.86425°
Altitude1,953.121 km
Speed6.675 km/s
Apparent Right ascension16h 51m 43s
Apparent Declination-63° 55' 01"
Sunlit
Object is in daylight
Visualization observer readout
Local Sidereal Time11:34:15
Azimuth149.749° SSE
Elevation-30.936°
Doppler factor1
Orbital elements
Apogee altitude2,065.946 km
Perigee altitude746.631 km
Semi-major axis7,784.426 km
Eccentricity0.0847407
Inclination56.1647°
RAAN6.2279°
Arg. of periapsis72.294°
True anomaly287.79951°
Mean anomaly296.8589°
Eccentric anomaly292.36896°
Mean motion3.16012 °/min
BSTAR0.00038857
Orbital period113.92 mins
Loading maneuver chart data...
Loading historical data...
Loading historical data...
Loading historical data...
Loading historical data...
Loading historical data...
Loading historical data...
Loading historical data...

SL-8 DEB Visibility forecast

Observer location: undefined°, undefined

Span
Click to sort rows by Start time (UTC) header in descending order
Start Az.
Max El. time (UTC)
Max El. Az.
Max El.
End time (UTC)
End Az.
10 mins2024-12-22 02:46:26.682Z206.606° SW2024-12-22 02:51:26.682Z141.91° SSE39.761°2024-12-22 02:56:26.682Z53.497° ENE
7 mins2024-12-22 04:47:26.682Z284.328° WNW2024-12-22 04:50:26.682Z333.475° NNW24.619°2024-12-22 04:54:26.682Z28.123° NE
7 mins2024-12-22 08:48:26.682Z350.166° N2024-12-22 08:51:26.682Z36.09° NE22.471°2024-12-22 08:55:26.682Z79.041° E
11 mins2024-12-22 10:45:26.682Z313.207° NW2024-12-22 10:49:26.682Z290.91° WNW44.33°2024-12-22 10:56:26.682Z139.52° SSE
|